Change the Weather History Date:

Saturday, January 5, 2013

  Actual Average Record
Temperature  
Mean Temperature 26 °F -  
Max Temperature 37 °F 31 °F 51 °F (2012)
Min Temperature 15 °F 17 °F -19 °F (1988)
Degree Days  
Heating Degree Days 39    
Moisture  
Dew Point 24 °F    
Average Humidity 85    
Maximum Humidity 93    
Minimum Humidity 65    
Precipitation  
Precipitation 0.00 in - - ()
Sea Level Pressure  
Sea Level Pressure 30.03 in    
Wind  
Wind Speed 7 mph (SSW)    
Max Wind Speed 22 mph    
Max Gust Speed 21 mph    
Visibility 7 miles    
Events Snow    
Averages and records for this station are not official NWS values.
T = Trace of Precipitation, MM = Missing Value Source: NWS Daily Summary

Daily Weather History Graph

Daily Weather History Graph

Search for Another Location

Airport or City:

Trip Planner

Search our weather history database for the weather conditions in past years. The results will help you decide how hot, cold, wet, or windy it might be!

Date:

Astronomy

Jan. 05, 2013 Rise Set
Actual Time 7:26 AM CST 4:37 PM CST
Civil Twilight 6:54 AM CST 5:09 PM CST
Nautical Twilight 6:19 AM CST 5:44 PM CST
Astronomical Twilight 5:45 AM CST 6:18 PM CST
Moon 12:27 AM CST (1/5) 11:31 AM CST (1/5)
Length of Visible Light 10h 14m
Length of Day
9h 11m
Last Quarter, 44% of the Moon is Illuminated
Jan 5
Last Quarter
Jan 11
New
Jan 18
First Quarter
Jan 26
Full
Feb 3
Last Quarter

Hourly Weather History & Observations

Time (CST) Temp. Windchill Dew Point Humidity Pressure Visibility Wind Dir Wind Speed Gust Speed Precip Events Conditions
12:15 AM 21.2 °F 16.4 °F 15.8 °F 80% 30.17 in 10.0 mi SSE 3.5 mph - N/A   Clear
12:35 AM 19.4 °F 14.3 °F 14.0 °F 80% 30.16 in 10.0 mi South 3.5 mph - N/A   Clear
12:55 AM 17.6 °F 12.3 °F 12.2 °F 79% 30.14 in 10.0 mi East 3.5 mph - N/A   Clear
1:15 AM 17.6 °F 6.4 °F 12.2 °F 79% 30.18 in 10.0 mi SSW 9.2 mph - N/A   Clear
1:35 AM 19.4 °F 10.4 °F 17.6 °F 93% 30.19 in 10.0 mi SW 6.9 mph - N/A   Clear
1:55 AM 19.4 °F - 15.8 °F 86% 30.19 in 7.0 mi Calm Calm - N/A   Clear
2:15 AM 19.4 °F - 17.6 °F 93% 30.20 in 7.0 mi Calm Calm - N/A   Clear
2:35 AM 17.6 °F - 14.0 °F 86% 30.19 in 7.0 mi Calm Calm - N/A   Clear
2:55 AM 19.4 °F - 15.8 °F 86% 30.20 in 5.0 mi Calm Calm - N/A   Clear
3:15 AM 17.6 °F - 14.0 °F 86% 30.20 in 5.0 mi Calm Calm - N/A   Clear
3:35 AM 17.6 °F - 12.2 °F 79% 30.18 in 5.0 mi Calm Calm - N/A   Clear
3:55 AM 15.8 °F 10.2 °F 12.2 °F 86% 30.18 in 5.0 mi SE 3.5 mph - N/A   Clear
4:35 AM 17.6 °F - 14.0 °F 86% 30.15 in 5.0 mi Calm Calm - N/A   Clear
7:45 AM 19.4 °F - 17.6 °F 93% 30.13 in 2.0 mi Calm Calm - N/A   Clear
8:45 AM 19.4 °F - 17.6 °F 93% 30.12 in 3.0 mi Calm Calm - N/A   Clear
9:45 AM 24.8 °F 14.0 °F 21.2 °F 86% 30.14 in 5.0 mi SSW 11.5 mph - N/A   Clear
10:45 AM 28.4 °F 22.2 °F 21.2 °F 74% 30.11 in 7.0 mi SSW 5.8 mph - N/A   Clear
11:52 AM 32.0 °F 19.5 °F 24.8 °F 75% 30.06 in 8.0 mi SSW 21.9 mph 17.3 mph N/A   Mostly Cloudy
12:45 PM 33.8 °F 24.3 °F 26.6 °F 75% 30.02 in 10.0 mi SSW 13.8 mph 19.6 mph N/A   Mostly Cloudy
1:45 PM 37.4 °F 29.3 °F 26.6 °F 65% 30.00 in 10.0 mi SW 12.7 mph 18.4 mph N/A   Mostly Cloudy
2:20 PM 33.8 °F 27.0 °F 26.6 °F 75% 29.99 in 6.0 mi South 8.1 mph 13.8 mph N/A Snow Light Snow
2:45 PM 33.8 °F 27.0 °F 26.6 °F 75% 29.98 in 1.5 mi SSW 8.1 mph - N/A Snow Light Snow
3:45 PM 33.8 °F 28.6 °F 30.2 °F 87% 29.97 in 2.0 mi SSW 5.8 mph - N/A Snow Light Snow
4:45 PM 33.8 °F 25.3 °F 32.0 °F 93% 29.95 in 4.0 mi SSW 11.5 mph - N/A Snow Light Snow
5:45 PM 35.6 °F 27.5 °F 32.0 °F 87% 29.95 in 6.0 mi SSW 11.5 mph - N/A Snow Light Snow
6:45 PM 35.6 °F 25.9 °F 32.0 °F 87% 29.95 in 6.0 mi SW 16.1 mph - N/A   Light Drizzle
7:45 PM 35.6 °F 25.5 °F 32.0 °F 87% 29.93 in 7.0 mi SW 17.3 mph 20.7 mph N/A   Overcast
8:15 PM 33.8 °F 24.8 °F 32.0 °F 93% 29.93 in 7.0 mi SW 12.7 mph - N/A   Overcast
8:35 PM 33.8 °F 24.3 °F 32.0 °F 93% 29.92 in 7.0 mi SW 13.8 mph - N/A   Overcast
8:45 PM 35.6 °F 26.6 °F 33.8 °F 93% 29.92 in 7.0 mi SW 13.8 mph - N/A   Overcast
8:55 PM 33.8 °F 23.9 °F 32.0 °F 93% 29.91 in 7.0 mi SW 15.0 mph 19.6 mph N/A   Overcast
9:15 PM 33.8 °F 24.3 °F 32.0 °F 93% 29.91 in 7.0 mi SW 13.8 mph 17.3 mph N/A   Overcast
9:35 PM 33.8 °F 23.5 °F 32.0 °F 93% 29.91 in 7.0 mi SW 16.1 mph - N/A   Overcast
9:55 PM 35.6 °F 26.6 °F 32.0 °F 87% 29.91 in 7.0 mi SW 13.8 mph - N/A   Overcast
10:15 PM 35.6 °F 26.6 °F 32.0 °F 87% 29.90 in 7.0 mi SW 13.8 mph - N/A   Overcast
10:35 PM 35.6 °F 25.5 °F 32.0 °F 87% 29.90 in 7.0 mi SW 17.3 mph 20.7 mph N/A   Overcast
10:55 PM 35.6 °F 26.6 °F 32.0 °F 87% 29.89 in 7.0 mi SW 13.8 mph 19.6 mph N/A   Overcast
11:15 PM 35.6 °F 27.5 °F 32.0 °F 87% 29.89 in 7.0 mi SW 11.5 mph - N/A   Overcast
11:35 PM 35.6 °F 28.6 °F 32.0 °F 87% 29.88 in 7.0 mi SW 9.2 mph - N/A   Overcast
11:55 PM 35.6 °F 28.0 °F 32.0 °F 87% 29.87 in 7.0 mi SW 10.4 mph - N/A   Overcast